This is the latest recevied weather packets stored in our database for station/object KI5RAB. If no packets are shown the sender has not sent any weather packets the latest 10 day(s).
| Time | Temp. | Humidity | Pressure | Rain* | Wind** | Luminosity | Snow |
|---|---|---|---|---|---|---|---|
| 1777953122 | 22.78° C | 82% | 1013 hPa | 0 mm | - | 0 W/m² | - |
| 1777952819 | 23.33° C | 82% | 1013.1 hPa | 0 mm | - | 0 W/m² | - |
| 1777952516 | 23.33° C | 82% | 1013 hPa | 0 mm | - | 0 W/m² | - |
| 1777952212 | 23.33° C | 81% | 1012.9 hPa | 0 mm | - | 0 W/m² | - |
| 1777951911 | 23.33° C | 81% | 1012.9 hPa | 0 mm | - | 0 W/m² | - |
| 1777951608 | 23.33° C | 80% | 1013 hPa | 0 mm | - | 0 W/m² | - |
| 1777951304 | 23.33° C | 79% | 1013.2 hPa | 0 mm | - | 0 W/m² | - |
| 1777951002 | 23.33° C | 79% | 1012.8 hPa | 0 mm | - | 0 W/m² | - |
| 1777950698 | 23.33° C | 79% | 1012.8 hPa | 0 mm | - | 0 W/m² | - |
| 1777950395 | 23.33° C | 79% | 1012.8 hPa | 0 mm | - | 0 W/m² | - |
| 1777950090 | 23.33° C | 79% | 1013.1 hPa | 0 mm | - | 0 W/m² | - |
| 1777949787 | 23.33° C | 78% | 1013 hPa | 0 mm | - | 0 W/m² | - |
| 1777949486 | 23.33° C | 79% | 1013 hPa | 0 mm | - | 0 W/m² | - |
| 1777949183 | 23.33° C | 78% | 1013.1 hPa | 0 mm | - | 0 W/m² | - |
| 1777948880 | 22.78° C | 79% | 1013.1 hPa | 0 mm | - | 0 W/m² | - |
| 1777948577 | 22.78° C | 78% | 1013 hPa | 0 mm | - | 0 W/m² | - |
| 1777948274 | 23.33° C | 78% | 1013.1 hPa | 0 mm | - | 0 W/m² | - |
| 1777947972 | 23.33° C | 77% | 1012.9 hPa | 0 mm | - | 0 W/m² | - |
| 1777947668 | 23.33° C | 77% | 1013 hPa | 0 mm | - | 0 W/m² | - |
| 1777947365 | 23.89° C | 76% | 1012.9 hPa | 0 mm | - | 0 W/m² | - |
| 1777947062 | 23.89° C | 76% | 1012.8 hPa | 0 mm | - | 0 W/m² | - |
| 1777946762 | 23.89° C | 75% | 1012.9 hPa | 0 mm | - | 0 W/m² | - |
| 1777946459 | 24.44° C | 74% | 1012.6 hPa | 0 mm | - | 0 W/m² | - |
| 1777946156 | 23.89° C | 74% | 1012.5 hPa | 0 mm | - | 0 W/m² | - |
| 1777945853 | 23.89° C | 74% | 1012.5 hPa | 0 mm | - | 0 W/m² | - |
* Rain latest hour (hover to see other rain measurements)
** Current wind speed in m/s (hover to see current wind gust speed)